Time,TemperatureF,DewpointF,PressureIn,WindDirection,WindDirectionDegrees,WindSpeedMPH,WindSpeedGustMPH,Humidity,HourlyPrecipIn,Conditions,Clouds,dailyrainin,SoftwareType,DateUTC
2013-03-12 00:00:00,45.0,0.0,29.92,SSW,202,0.0,5.0,0,0.00,,,0.00,Weather View 32 v70,2013-03-12 07:00:00,
2013-03-12 00:05:00,45.0,0.0,29.91,SSW,202,0.0,5.0,0,0.00,,,0.00,Weather View 32 v70,2013-03-12 07:05:00,
2013-03-12 00:10:00,45.0,0.0,29.91,SSW,202,3.0,5.0,0,0.00,,,0.00,Weather View 32 v70,2013-03-12 07:10:00,
2013-03-12 00:15:00,45.0,0.0,29.92,SSW,202,0.0,5.0,0,0.00,,,0.00,Weather View 32 v70,2013-03-12 07:15:00,
2013-03-12 00:20:00,45.0,0.0,29.91,SSW,202,0.0,5.0,0,0.00,,,0.00,Weather View 32 v70,2013-03-12 07:20:00,
2013-03-12 00:25:00,45.0,0.0,29.91,SW,225,0.0,5.0,0,0.00,,,0.00,Weather View 32 v70,2013-03-12 07:25:00,
2013-03-12 00:30:00,45.0,0.0,29.91,SW,225,0.0,5.0,0,0.00,,,0.00,Weather View 32 v70,2013-03-12 07:30:00,
2013-03-12 00:35:00,45.0,0.0,29.91,SW,225,0.0,5.0,0,0.00,,,0.00,Weather View 32 v70,2013-03-12 07:35:00,
2013-03-12 00:40:00,45.0,0.0,29.91,SSW,202,0.0,5.0,0,0.00,,,0.00,Weather View 32 v70,2013-03-12 07:40:00,
2013-03-12 00:45:00,45.0,0.0,29.91,SW,225,0.0,5.0,0,0.00,,,0.00,Weather View 32 v70,2013-03-12 07:45:00,
2013-03-12 00:50:00,45.0,0.0,29.90,South,180,0.0,5.0,0,0.00,,,0.00,Weather View 32 v70,2013-03-12 07:50:00,
2013-03-12 00:55:00,45.0,0.0,29.90,South,180,0.0,5.0,0,0.00,,,0.00,Weather View 32 v70,2013-03-12 07:55:00,
2013-03-12 01:00:00,46.0,0.0,29.90,SW,225,0.0,3.0,0,0.00,,,0.00,Weather View 32 v70,2013-03-12 08:00:00,
2013-03-12 01:05:00,46.0,0.0,29.90,SE,135,0.0,3.0,0,0.00,,,0.00,Weather View 32 v70,2013-03-12 08:05:00,
2013-03-12 01:10:00,46.0,0.0,29.90,West,270,0.0,3.0,0,0.00,,,0.00,Weather View 32 v70,2013-03-12 08:10:00,
2013-03-12 01:15:00,46.0,0.0,29.90,WNW,292,0.0,3.0,0,0.00,,,0.00,Weather View 32 v70,2013-03-12 08:15:00,
2013-03-12 01:20:00,46.0,0.0,29.90,NNE,22,0.0,3.0,0,0.00,,,0.00,Weather View 32 v70,2013-03-12 08:20:00,
2013-03-12 01:25:00,46.0,0.0,29.89,WNW,292,0.0,0.0,0,0.00,,,0.00,Weather View 32 v70,2013-03-12 08:25:00,
2013-03-12 01:30:00,46.0,0.0,29.89,SW,225,0.0,0.0,0,0.00,,,0.00,Weather View 32 v70,2013-03-12 08:30:00,
2013-03-12 01:35:00,46.0,0.0,29.89,ESE,112,0.0,0.0,0,0.00,,,0.00,Weather View 32 v70,2013-03-12 08:35:00,
2013-03-12 01:40:00,46.0,0.0,29.88,WSW,248,0.0,0.0,0,0.00,,,0.00,Weather View 32 v70,2013-03-12 08:40:00,
2013-03-12 01:45:00,46.0,0.0,29.89,SW,225,0.0,0.0,0,0.00,,,0.00,Weather View 32 v70,2013-03-12 08:45:00,
2013-03-12 01:50:00,46.0,0.0,29.88,SW,225,0.0,0.0,0,0.00,,,0.00,Weather View 32 v70,2013-03-12 08:50:00,
2013-03-12 01:55:00,46.0,0.0,29.88,SSW,202,0.0,0.0,0,0.00,,,0.00,Weather View 32 v70,2013-03-12 08:55:00,
2013-03-12 02:00:00,46.0,0.0,29.88,SW,225,0.0,0.0,0,0.00,,,0.00,Weather View 32 v70,2013-03-12 09:00:00,
2013-03-12 02:05:00,46.0,0.0,29.88,SW,225,0.0,0.0,0,0.00,,,0.00,Weather View 32 v70,2013-03-12 09:05:00,
2013-03-12 02:10:00,46.0,0.0,29.88,SW,225,0.0,0.0,0,0.00,,,0.00,Weather View 32 v70,2013-03-12 09:10:00,
2013-03-12 02:15:00,46.0,0.0,29.88,SW,225,3.0,6.0,0,0.00,,,0.00,Weather View 32 v70,2013-03-12 09:15:00,
2013-03-12 02:20:00,46.0,0.0,29.88,SW,225,6.0,6.0,0,0.00,,,0.00,Weather View 32 v70,2013-03-12 09:20:00,
2013-03-12 02:25:00,46.0,0.0,29.88,SW,225,3.0,7.0,0,0.00,,,0.00,Weather View 32 v70,2013-03-12 09:25:00,
2013-03-12 02:30:00,46.0,0.0,29.88,WSW,248,1.0,7.0,0,0.00,,,0.00,Weather View 32 v70,2013-03-12 09:30:00,
2013-03-12 02:35:00,47.0,0.0,29.88,SW,225,0.0,7.0,0,0.00,,,0.00,Weather View 32 v70,2013-03-12 09:35:00,
2013-03-12 02:40:00,47.0,0.0,29.88,South,180,0.0,7.0,0,0.00,,,0.00,Weather View 32 v70,2013-03-12 09:40:00,
2013-03-12 02:45:00,47.0,0.0,29.88,SW,225,0.0,7.0,0,0.00,,,0.00,Weather View 32 v70,2013-03-12 09:45:00,
2013-03-12 02:50:00,47.0,0.0,29.88,SW,225,3.0,7.0,0,0.00,,,0.00,Weather View 32 v70,2013-03-12 09:50:00,
2013-03-12 02:55:00,47.0,0.0,29.88,SSW,202,2.0,7.0,0,0.00,,,0.00,Weather View 32 v70,2013-03-12 09:55:00,
2013-03-12 03:00:00,47.0,0.0,29.88,SW,225,4.0,7.0,0,0.00,,,0.00,Weather View 32 v70,2013-03-12 10:00:00,
2013-03-12 03:05:00,47.0,0.0,29.87,SW,225,2.0,7.0,0,0.00,,,0.00,Weather View 32 v70,2013-03-12 10:05:00,
2013-03-12 03:10:00,47.0,0.0,29.87,SW,225,3.0,7.0,0,0.00,,,0.00,Weather View 32 v70,2013-03-12 10:10:00,
2013-03-12 03:15:00,47.0,0.0,29.87,SW,225,3.0,7.0,0,0.00,,,0.00,Weather View 32 v70,2013-03-12 10:15:00,
2013-03-12 03:20:00,47.0,0.0,29.87,SW,225,0.0,7.0,0,0.00,,,0.00,Weather View 32 v70,2013-03-12 10:20:00,
2013-03-12 03:25:00,47.0,0.0,29.86,SW,225,3.0,6.0,0,0.00,,,0.00,Weather View 32 v70,2013-03-12 10:25:00,
2013-03-12 03:30:00,47.0,0.0,29.86,SW,225,0.0,6.0,0,0.00,,,0.00,Weather View 32 v70,2013-03-12 10:30:00,
2013-03-12 03:35:00,47.0,0.0,29.86,SSW,202,3.0,6.0,0,0.00,,,0.00,Weather View 32 v70,2013-03-12 10:35:00,
2013-03-12 03:40:00,47.0,0.0,29.86,WSW,248,1.0,6.0,0,0.00,,,0.00,Weather View 32 v70,2013-03-12 10:40:00,
2013-03-12 03:45:00,47.0,0.0,29.86,SSW,202,6.0,6.0,0,0.00,,,0.00,Weather View 32 v70,2013-03-12 10:45:00,
2013-03-12 03:50:00,47.0,0.0,29.86,SSW,202,3.0,6.0,0,0.00,,,0.00,Weather View 32 v70,2013-03-12 10:50:00,
2013-03-12 03:55:00,47.0,0.0,29.86,SW,225,0.0,6.0,0,0.00,,,0.00,Weather View 32 v70,2013-03-12 10:55:00,
2013-03-12 04:00:00,47.0,0.0,29.85,SW,225,0.0,6.0,0,0.00,,,0.00,Weather View 32 v70,2013-03-12 11:00:00,
2013-03-12 04:05:00,47.0,0.0,29.85,SSW,202,0.0,6.0,0,0.00,,,0.00,Weather View 32 v70,2013-03-12 11:05:00,
2013-03-12 04:10:00,47.0,0.0,29.85,South,180,0.0,6.0,0,0.00,,,0.00,Weather View 32 v70,2013-03-12 11:10:00,
2013-03-12 04:15:00,47.0,0.0,29.84,SW,225,2.0,6.0,0,0.00,,,0.00,Weather View 32 v70,2013-03-12 11:15:00,
2013-03-12 04:20:00,47.0,0.0,29.84,SW,225,3.0,6.0,0,0.00,,,0.00,Weather View 32 v70,2013-03-12 11:20:00,
2013-03-12 04:25:00,47.0,0.0,29.84,WSW,248,2.0,6.0,0,0.00,,,0.00,Weather View 32 v70,2013-03-12 11:25:00,
2013-03-12 04:30:00,47.0,0.0,29.84,SW,225,3.0,6.0,0,0.00,,,0.00,Weather View 32 v70,2013-03-12 11:30:00,
2013-03-12 04:35:00,47.0,0.0,29.83,SW,225,3.0,6.0,0,0.00,,,0.00,Weather View 32 v70,2013-03-12 11:35:00,
2013-03-12 04:40:00,47.0,0.0,29.83,WSW,248,4.0,6.0,0,0.00,,,0.00,Weather View 32 v70,2013-03-12 11:40:00,
2013-03-12 04:45:00,47.0,0.0,29.83,WSW,248,6.0,7.0,0,0.00,,,0.00,Weather View 32 v70,2013-03-12 11:45:00,
2013-03-12 04:50:00,47.0,0.0,29.83,SW,225,5.0,8.0,0,0.00,,,0.00,Weather View 32 v70,2013-03-12 11:50:00,
2013-03-12 04:55:00,47.0,0.0,29.83,SW,225,3.0,8.0,0,0.00,,,0.00,Weather View 32 v70,2013-03-12 11:55:00,
2013-03-12 05:00:00,47.0,0.0,29.83,WNW,292,1.0,8.0,0,0.00,,,0.00,Weather View 32 v70,2013-03-12 12:00:00,
2013-03-12 05:05:00,47.0,0.0,29.83,SSW,202,1.0,8.0,0,0.00,,,0.00,Weather View 32 v70,2013-03-12 12:05:00,
2013-03-12 05:10:00,47.0,0.0,29.83,SSW,202,5.0,8.0,0,0.00,,,0.00,Weather View 32 v70,2013-03-12 12:10:00,
2013-03-12 05:15:00,47.0,0.0,29.83,SW,225,4.0,8.0,0,0.00,,,0.00,Weather View 32 v70,2013-03-12 12:15:00,
2013-03-12 05:20:00,47.0,0.0,29.83,SW,225,3.0,8.0,0,0.00,,,0.00,Weather View 32 v70,2013-03-12 12:20:00,
2013-03-12 05:25:00,47.0,0.0,29.83,SSW,202,3.0,8.0,0,0.00,,,0.00,Weather View 32 v70,2013-03-12 12:25:00,
2013-03-12 05:30:00,47.0,0.0,29.83,SW,225,3.0,8.0,0,0.00,,,0.00,Weather View 32 v70,2013-03-12 12:30:00,
2013-03-12 05:35:00,47.0,0.0,29.82,SW,225,2.0,8.0,0,0.00,,,0.00,Weather View 32 v70,2013-03-12 12:35:00,
2013-03-12 05:40:00,47.0,0.0,29.82,SW,225,3.0,8.0,0,0.00,,,0.00,Weather View 32 v70,2013-03-12 12:40:00,
2013-03-12 05:45:00,47.0,0.0,29.82,South,180,4.0,8.0,0,0.00,,,0.00,Weather View 32 v70,2013-03-12 12:45:00,
2013-03-12 05:50:00,47.0,0.0,29.82,SSW,202,3.0,8.0,0,0.00,,,0.00,Weather View 32 v70,2013-03-12 12:50:00,
2013-03-12 05:55:00,47.0,0.0,29.82,SSW,202,6.0,7.0,0,0.00,,,0.00,Weather View 32 v70,2013-03-12 12:55:00,
2013-03-12 06:00:00,47.0,0.0,29.82,SSW,202,3.0,8.0,0,0.00,,,0.00,Weather View 32 v70,2013-03-12 13:00:00,
2013-03-12 06:05:00,47.0,0.0,29.82,SW,225,4.0,8.0,0,0.00,,,0.00,Weather View 32 v70,2013-03-12 13:05:00,
2013-03-12 06:10:00,47.0,0.0,29.82,SSW,202,5.0,8.0,0,0.00,,,0.00,Weather View 32 v70,2013-03-12 13:10:00,
2013-03-12 06:15:00,47.0,0.0,29.82,WSW,248,2.0,8.0,0,0.00,,,0.00,Weather View 32 v70,2013-03-12 13:15:00,
2013-03-12 06:20:00,47.0,0.0,29.82,SSE,158,2.0,8.0,0,0.00,,,0.00,Weather View 32 v70,2013-03-12 13:20:00,
2013-03-12 06:25:00,47.0,0.0,29.82,South,180,4.0,8.0,0,0.00,,,0.00,Weather View 32 v70,2013-03-12 13:25:00,
2013-03-12 06:30:00,47.0,0.0,29.82,WSW,248,3.0,8.0,0,0.00,,,0.00,Weather View 32 v70,2013-03-12 13:30:00,
2013-03-12 06:35:00,47.0,0.0,29.82,SSW,202,5.0,8.0,0,0.00,,,0.00,Weather View 32 v70,2013-03-12 13:35:00,
2013-03-12 06:40:00,47.0,0.0,29.81,South,180,3.0,8.0,0,0.00,,,0.00,Weather View 32 v70,2013-03-12 13:40:00,
2013-03-12 06:45:00,47.0,0.0,29.81,SSW,202,3.0,8.0,0,0.01,,,0.01,Weather View 32 v70,2013-03-12 13:45:00,
2013-03-12 06:50:00,47.0,0.0,29.81,SSW,202,5.0,8.0,0,0.01,,,0.01,Weather View 32 v70,2013-03-12 13:50:00,
2013-03-12 06:55:00,47.0,0.0,29.81,SSW,202,3.0,8.0,0,0.01,,,0.01,Weather View 32 v70,2013-03-12 13:55:00,
2013-03-12 07:00:00,47.0,0.0,29.81,SW,225,4.0,8.0,0,0.01,,,0.01,Weather View 32 v70,2013-03-12 14:00:00,
2013-03-12 07:05:00,47.0,0.0,29.81,SSW,202,3.0,6.0,0,0.01,,,0.01,Weather View 32 v70,2013-03-12 14:05:00,
2013-03-12 07:10:00,47.0,0.0,29.81,SSW,202,3.0,6.0,0,0.01,,,0.01,Weather View 32 v70,2013-03-12 14:10:00,
2013-03-12 07:15:00,47.0,0.0,29.81,SW,225,5.0,6.0,0,0.01,,,0.01,Weather View 32 v70,2013-03-12 14:15:00,
2013-03-12 07:20:00,47.0,0.0,29.81,SW,225,4.0,6.0,0,0.01,,,0.01,Weather View 32 v70,2013-03-12 14:20:00,
2013-03-12 07:25:00,47.0,0.0,29.80,SW,225,3.0,7.0,0,0.01,,,0.01,Weather View 32 v70,2013-03-12 14:25:00,
2013-03-12 07:30:00,47.0,0.0,29.80,SW,225,5.0,8.0,0,0.01,,,0.01,Weather View 32 v70,2013-03-12 14:30:00,
2013-03-12 07:35:00,47.0,0.0,29.82,WSW,248,3.0,8.0,0,0.01,,,0.01,Weather View 32 v70,2013-03-12 14:35:00,
2013-03-12 07:40:00,47.0,0.0,29.82,South,180,5.0,8.0,0,0.01,,,0.01,Weather View 32 v70,2013-03-12 14:40:00,
2013-03-12 07:45:00,47.0,0.0,29.82,SSW,202,4.0,8.0,0,0.00,,,0.01,Weather View 32 v70,2013-03-12 14:45:00,
2013-03-12 07:50:00,47.0,0.0,29.82,SSW,202,3.0,8.0,0,0.00,,,0.01,Weather View 32 v70,2013-03-12 14:50:00,
2013-03-12 07:55:00,47.0,0.0,29.82,SSW,202,3.0,8.0,0,0.00,,,0.01,Weather View 32 v70,2013-03-12 14:55:00,
2013-03-12 08:00:00,47.0,0.0,29.82,SW,225,3.0,8.0,0,0.00,,,0.01,Weather View 32 v70,2013-03-12 15:00:00,
2013-03-12 08:05:00,47.0,0.0,29.82,SW,225,3.0,8.0,0,0.00,,,0.01,Weather View 32 v70,2013-03-12 15:05:00,
2013-03-12 08:10:00,47.0,0.0,29.82,SW,225,4.0,8.0,0,0.00,,,0.01,Weather View 32 v70,2013-03-12 15:10:00,
2013-03-12 08:15:00,47.0,0.0,29.82,SW,225,4.0,8.0,0,0.00,,,0.01,Weather View 32 v70,2013-03-12 15:15:00,
2013-03-12 08:20:00,47.0,0.0,29.82,SSW,202,4.0,8.0,0,0.00,,,0.01,Weather View 32 v70,2013-03-12 15:20:00,
2013-03-12 08:25:00,47.0,0.0,29.82,SW,225,2.0,8.0,0,0.00,,,0.01,Weather View 32 v70,2013-03-12 15:25:00,
2013-03-12 08:30:00,47.0,0.0,29.83,SSW,202,3.0,7.0,0,0.00,,,0.01,Weather View 32 v70,2013-03-12 15:30:00,
2013-03-12 08:35:00,48.0,0.0,29.83,SSW,202,3.0,7.0,0,0.00,,,0.01,Weather View 32 v70,2013-03-12 15:35:00,
2013-03-12 08:40:00,48.0,0.0,29.83,SSW,202,4.0,7.0,0,0.00,,,0.01,Weather View 32 v70,2013-03-12 15:40:00,
2013-03-12 08:45:00,48.0,0.0,29.83,SW,225,1.0,7.0,0,0.00,,,0.01,Weather View 32 v70,2013-03-12 15:45:00,
2013-03-12 08:50:00,48.0,0.0,29.83,SW,225,3.0,7.0,0,0.00,,,0.01,Weather View 32 v70,2013-03-12 15:50:00,
2013-03-12 08:55:00,48.0,0.0,29.84,SW,225,3.0,7.0,0,0.00,,,0.01,Weather View 32 v70,2013-03-12 15:55:00,
2013-03-12 09:00:00,48.0,0.0,29.83,South,180,2.0,7.0,0,0.00,,,0.01,Weather View 32 v70,2013-03-12 16:00:00,
2013-03-12 09:05:00,48.0,0.0,29.83,SW,225,4.0,7.0,0,0.00,,,0.01,Weather View 32 v70,2013-03-12 16:05:00,
2013-03-12 09:10:00,48.0,0.0,29.84,SW,225,5.0,7.0,0,0.00,,,0.01,Weather View 32 v70,2013-03-12 16:10:00,
2013-03-12 09:15:00,48.0,0.0,29.84,SW,225,6.0,7.0,0,0.00,,,0.01,Weather View 32 v70,2013-03-12 16:15:00,
2013-03-12 09:20:00,48.0,0.0,29.84,SW,225,3.0,9.0,0,0.00,,,0.01,Weather View 32 v70,2013-03-12 16:20:00,
2013-03-12 09:25:00,48.0,0.0,29.84,SW,225,3.0,9.0,0,0.00,,,0.01,Weather View 32 v70,2013-03-12 16:25:00,
2013-03-12 09:30:00,48.0,0.0,29.84,SW,225,5.0,9.0,0,0.00,,,0.01,Weather View 32 v70,2013-03-12 16:30:00,
2013-03-12 09:35:00,48.0,0.0,29.83,SW,225,0.0,9.0,0,0.00,,,0.01,Weather View 32 v70,2013-03-12 16:35:00,
2013-03-12 09:40:00,49.0,0.0,29.83,SW,225,5.0,9.0,0,0.00,,,0.01,Weather View 32 v70,2013-03-12 16:40:00,
2013-03-12 09:45:00,49.0,0.0,29.83,SW,225,5.0,9.0,0,0.00,,,0.01,Weather View 32 v70,2013-03-12 16:45:00,
2013-03-12 09:50:00,49.0,0.0,29.83,SSW,202,4.0,9.0,0,0.00,,,0.01,Weather View 32 v70,2013-03-12 16:50:00,
2013-03-12 09:55:00,49.0,0.0,29.83,SSW,202,3.0,9.0,0,0.00,,,0.01,Weather View 32 v70,2013-03-12 16:55:00,
2013-03-12 10:00:00,49.0,0.0,29.83,SW,225,4.0,9.0,0,0.00,,,0.01,Weather View 32 v70,2013-03-12 17:00:00,
2013-03-12 10:05:00,49.0,0.0,29.83,SW,225,3.0,9.0,0,0.00,,,0.01,Weather View 32 v70,2013-03-12 17:05:00,
2013-03-12 10:10:00,49.0,0.0,29.84,SW,225,3.0,9.0,0,0.00,,,0.01,Weather View 32 v70,2013-03-12 17:10:00,
2013-03-12 10:15:00,49.0,0.0,29.83,WSW,248,4.0,9.0,0,0.00,,,0.01,Weather View 32 v70,2013-03-12 17:15:00,
2013-03-12 10:20:00,49.0,0.0,29.84,SW,225,5.0,7.0,0,0.00,,,0.01,Weather View 32 v70,2013-03-12 17:20:00,
2013-03-12 10:25:00,49.0,0.0,29.84,SW,225,3.0,7.0,0,0.00,,,0.01,Weather View 32 v70,2013-03-12 17:25:00,
2013-03-12 10:30:00,49.0,0.0,29.84,SSW,202,3.0,7.0,0,0.00,,,0.01,Weather View 32 v70,2013-03-12 17:30:00,
2013-03-12 10:35:00,49.0,0.0,29.84,SSW,202,3.0,7.0,0,0.00,,,0.01,Weather View 32 v70,2013-03-12 17:35:00,
2013-03-12 10:40:00,49.0,0.0,29.84,South,180,5.0,7.0,0,0.00,,,0.01,Weather View 32 v70,2013-03-12 17:40:00,
2013-03-12 10:45:00,49.0,0.0,29.84,SW,225,1.0,6.0,0,0.00,,,0.01,Weather View 32 v70,2013-03-12 17:45:00,
2013-03-12 10:50:00,49.0,0.0,29.85,SSW,202,2.0,6.0,0,0.00,,,0.01,Weather View 32 v70,2013-03-12 17:50:00,
2013-03-12 10:55:00,49.0,0.0,29.85,SW,225,3.0,6.0,0,0.00,,,0.01,Weather View 32 v70,2013-03-12 17:55:00,
2013-03-12 11:00:00,49.0,0.0,29.85,SSW,202,4.0,6.0,0,0.00,,,0.01,Weather View 32 v70,2013-03-12 18:00:00,
2013-03-12 11:05:00,49.0,0.0,29.85,SSW,202,3.0,6.0,0,0.00,,,0.01,Weather View 32 v70,2013-03-12 18:05:00,
2013-03-12 11:10:00,49.0,0.0,29.85,SSW,202,2.0,6.0,0,0.00,,,0.01,Weather View 32 v70,2013-03-12 18:10:00,
2013-03-12 11:15:00,49.0,0.0,29.85,SSW,202,2.0,6.0,0,0.00,,,0.01,Weather View 32 v70,2013-03-12 18:15:00,
2013-03-12 11:20:00,49.0,0.0,29.85,SW,225,3.0,6.0,0,0.00,,,0.01,Weather View 32 v70,2013-03-12 18:20:00,
2013-03-12 11:25:00,49.0,0.0,29.85,SW,225,1.0,6.0,0,0.00,,,0.01,Weather View 32 v70,2013-03-12 18:25:00,
2013-03-12 11:30:00,49.0,0.0,29.85,SSW,202,2.0,6.0,0,0.00,,,0.01,Weather View 32 v70,2013-03-12 18:30:00,
2013-03-12 11:35:00,49.0,0.0,29.85,SW,225,3.0,6.0,0,0.00,,,0.01,Weather View 32 v70,2013-03-12 18:35:00,
2013-03-12 11:40:00,49.0,0.0,29.85,SSW,202,1.0,6.0,0,0.00,,,0.01,Weather View 32 v70,2013-03-12 18:40:00,
2013-03-12 11:45:00,49.0,0.0,29.85,South,180,3.0,6.0,0,0.00,,,0.01,Weather View 32 v70,2013-03-12 18:45:00,
2013-03-12 11:50:00,49.0,0.0,29.85,SSW,202,0.0,6.0,0,0.00,,,0.01,Weather View 32 v70,2013-03-12 18:50:00,
2013-03-12 11:55:00,49.0,0.0,29.85,SW,225,1.0,6.0,0,0.00,,,0.01,Weather View 32 v70,2013-03-12 18:55:00,
2013-03-12 12:00:00,49.0,0.0,29.85,SSW,202,1.0,6.0,0,0.00,,,0.01,Weather View 32 v70,2013-03-12 19:00:00,
2013-03-12 12:05:00,49.0,0.0,29.85,South,180,3.0,6.0,0,0.00,,,0.01,Weather View 32 v70,2013-03-12 19:05:00,
2013-03-12 12:10:00,49.0,0.0,29.85,SSW,202,3.0,6.0,0,0.00,,,0.01,Weather View 32 v70,2013-03-12 19:10:00,
2013-03-12 12:15:00,49.0,0.0,29.85,SSW,202,0.0,6.0,0,0.00,,,0.01,Weather View 32 v70,2013-03-12 19:15:00,
2013-03-12 12:20:00,49.0,0.0,29.85,South,180,4.0,6.0,0,0.00,,,0.01,Weather View 32 v70,2013-03-12 19:20:00,
2013-03-12 12:25:00,49.0,0.0,29.85,South,180,3.0,6.0,0,0.00,,,0.01,Weather View 32 v70,2013-03-12 19:25:00,
2013-03-12 12:30:00,49.0,0.0,29.85,SSW,202,2.0,6.0,0,0.00,,,0.01,Weather View 32 v70,2013-03-12 19:30:00,
2013-03-12 12:35:00,49.0,0.0,29.85,SW,225,3.0,6.0,0,0.00,,,0.01,Weather View 32 v70,2013-03-12 19:35:00,
2013-03-12 12:40:00,49.0,0.0,29.85,South,180,3.0,6.0,0,0.00,,,0.01,Weather View 32 v70,2013-03-12 19:40:00,
2013-03-12 12:45:00,49.0,0.0,29.84,South,180,3.0,6.0,0,0.00,,,0.01,Weather View 32 v70,2013-03-12 19:45:00,
2013-03-12 12:50:00,49.0,0.0,29.85,SW,225,1.0,6.0,0,0.00,,,0.01,Weather View 32 v70,2013-03-12 19:50:00,
2013-03-12 12:55:00,50.0,0.0,29.85,SW,225,3.0,6.0,0,0.00,,,0.01,Weather View 32 v70,2013-03-12 19:55:00,
2013-03-12 13:00:00,50.0,0.0,29.85,SW,225,1.0,6.0,0,0.00,,,0.01,Weather View 32 v70,2013-03-12 20:00:00,
2013-03-12 13:05:00,50.0,0.0,29.85,SSW,202,4.0,6.0,0,0.00,,,0.01,Weather View 32 v70,2013-03-12 20:05:00,
2013-03-12 13:10:00,50.0,0.0,29.85,SSW,202,3.0,6.0,0,0.00,,,0.01,Weather View 32 v70,2013-03-12 20:10:00,
2013-03-12 13:15:00,50.0,0.0,29.85,SW,225,0.0,6.0,0,0.00,,,0.01,Weather View 32 v70,2013-03-12 20:15:00,
2013-03-12 13:20:00,50.0,0.0,29.85,SSW,202,0.0,6.0,0,0.00,,,0.01,Weather View 32 v70,2013-03-12 20:20:00,
2013-03-12 13:25:00,50.0,0.0,29.85,SW,225,0.0,6.0,0,0.00,,,0.01,Weather View 32 v70,2013-03-12 20:25:00,
2013-03-12 13:30:00,50.0,0.0,29.86,SSW,202,1.0,6.0,0,0.00,,,0.01,Weather View 32 v70,2013-03-12 20:30:00,
2013-03-12 13:35:00,50.0,0.0,29.86,SW,225,0.0,6.0,0,0.00,,,0.01,Weather View 32 v70,2013-03-12 20:35:00,
2013-03-12 13:40:00,50.0,0.0,29.85,SW,225,2.0,6.0,0,0.00,,,0.01,Weather View 32 v70,2013-03-12 20:40:00,
2013-03-12 13:45:00,50.0,0.0,29.86,SSW,202,3.0,6.0,0,0.00,,,0.01,Weather View 32 v70,2013-03-12 20:45:00,
2013-03-12 13:50:00,50.0,0.0,29.86,WSW,248,2.0,6.0,0,0.00,,,0.01,Weather View 32 v70,2013-03-12 20:50:00,
2013-03-12 13:54:00,50.0,0.0,29.86,WSW,248,3.0,6.0,0,0.00,,,0.01,Weather View 32 v70,2013-03-12 20:54:00,
2013-03-12 14:00:00,50.0,0.0,29.86,SW,225,2.0,6.0,0,0.00,,,0.01,Weather View 32 v70,2013-03-12 21:00:00,
2013-03-12 14:04:00,50.0,0.0,29.86,WSW,248,2.0,6.0,0,0.00,,,0.01,Weather View 32 v70,2013-03-12 21:04:00,
2013-03-12 14:10:00,50.0,0.0,29.85,SSW,202,3.0,6.0,0,0.00,,,0.01,Weather View 32 v70,2013-03-12 21:10:00,
2013-03-12 14:14:00,50.0,0.0,29.85,SSW,202,4.0,6.0,0,0.00,,,0.01,Weather View 32 v70,2013-03-12 21:14:00,
2013-03-12 14:19:00,50.0,0.0,29.85,SW,225,2.0,6.0,0,0.00,,,0.01,Weather View 32 v70,2013-03-12 21:19:00,
2013-03-12 14:24:00,50.0,0.0,29.84,South,180,4.0,6.0,0,0.00,,,0.01,Weather View 32 v70,2013-03-12 21:24:00,
2013-03-12 14:29:00,51.0,0.0,29.84,South,180,3.0,7.0,0,0.00,,,0.01,Weather View 32 v70,2013-03-12 21:29:00,
2013-03-12 14:34:00,51.0,0.0,29.83,SW,225,4.0,7.0,0,0.00,,,0.01,Weather View 32 v70,2013-03-12 21:34:00,
2013-03-12 14:39:00,51.0,0.0,29.83,SW,225,2.0,7.0,0,0.00,,,0.01,Weather View 32 v70,2013-03-12 21:39:00,
2013-03-12 14:45:00,51.0,0.0,29.84,SW,225,3.0,7.0,0,0.00,,,0.01,Weather View 32 v70,2013-03-12 21:45:00,
2013-03-12 14:50:00,51.0,0.0,29.83,SSW,202,4.0,7.0,0,0.00,,,0.01,Weather View 32 v70,2013-03-12 21:50:00,
2013-03-12 14:55:00,51.0,0.0,29.83,SW,225,2.0,7.0,0,0.00,,,0.01,Weather View 32 v70,2013-03-12 21:55:00,
2013-03-12 14:59:00,52.0,0.0,29.83,SW,225,1.0,7.0,0,0.00,,,0.01,Weather View 32 v70,2013-03-12 21:59:00,
2013-03-12 15:04:00,52.0,0.0,29.82,SSW,202,3.0,7.0,0,0.00,,,0.01,Weather View 32 v70,2013-03-12 22:04:00,
2013-03-12 15:10:00,52.0,0.0,29.82,SW,225,1.0,7.0,0,0.00,,,0.01,Weather View 32 v70,2013-03-12 22:10:00,
2013-03-12 15:14:00,53.0,0.0,29.82,WSW,248,3.0,7.0,0,0.00,,,0.01,Weather View 32 v70,2013-03-12 22:14:00,
2013-03-12 15:19:00,53.0,0.0,29.82,South,180,5.0,7.0,0,0.00,,,0.01,Weather View 32 v70,2013-03-12 22:19:00,
2013-03-12 15:25:00,54.0,0.0,29.82,SW,225,3.0,7.0,0,0.00,,,0.01,Weather View 32 v70,2013-03-12 22:25:00,
2013-03-12 15:30:00,54.0,0.0,29.82,SW,225,4.0,8.0,0,0.00,,,0.01,Weather View 32 v70,2013-03-12 22:30:00,
2013-03-12 15:35:00,54.0,0.0,29.82,SSW,202,5.0,8.0,0,0.00,,,0.01,Weather View 32 v70,2013-03-12 22:35:00,
2013-03-12 15:40:00,54.0,0.0,29.82,SW,225,3.0,8.0,0,0.00,,,0.01,Weather View 32 v70,2013-03-12 22:40:00,
2013-03-12 15:44:00,54.0,0.0,29.82,South,180,4.0,10.0,0,0.00,,,0.01,Weather View 32 v70,2013-03-12 22:44:00,
2013-03-12 15:49:00,54.0,0.0,29.83,SW,225,5.0,10.0,0,0.00,,,0.01,Weather View 32 v70,2013-03-12 22:49:00,
2013-03-12 15:55:00,54.0,0.0,29.83,SW,225,3.0,10.0,0,0.00,,,0.01,Weather View 32 v70,2013-03-12 22:55:00,
2013-03-12 16:00:00,53.0,0.0,29.83,SW,225,4.0,10.0,0,0.00,,,0.01,Weather View 32 v70,2013-03-12 23:00:00,
2013-03-12 16:05:00,53.0,0.0,29.83,SW,225,4.0,10.0,0,0.00,,,0.01,Weather View 32 v70,2013-03-12 23:05:00,
2013-03-12 16:10:00,53.0,0.0,29.83,SSW,202,5.0,10.0,0,0.00,,,0.01,Weather View 32 v70,2013-03-12 23:10:00,
2013-03-12 16:14:00,53.0,0.0,29.83,SW,225,3.0,10.0,0,0.00,,,0.01,Weather View 32 v70,2013-03-12 23:14:00,
2013-03-12 16:19:00,54.0,0.0,29.83,SW,225,2.0,10.0,0,0.00,,,0.01,Weather View 32 v70,2013-03-12 23:19:00,
2013-03-12 16:25:00,54.0,0.0,29.83,SW,225,4.0,10.0,0,0.00,,,0.01,Weather View 32 v70,2013-03-12 23:25:00,
2013-03-12 16:30:00,54.0,0.0,29.83,SSW,202,4.0,10.0,0,0.00,,,0.01,Weather View 32 v70,2013-03-12 23:30:00,
2013-03-12 16:35:00,54.0,0.0,29.83,WSW,248,5.0,10.0,0,0.00,,,0.01,Weather View 32 v70,2013-03-12 23:35:00,
2013-03-12 16:39:00,54.0,0.0,29.83,WSW,248,3.0,10.0,0,0.00,,,0.01,Weather View 32 v70,2013-03-12 23:39:00,
2013-03-12 16:45:00,53.0,0.0,29.83,SW,225,5.0,10.0,0,0.00,,,0.01,Weather View 32 v70,2013-03-12 23:45:00,
2013-03-12 16:50:00,53.0,0.0,29.83,SW,225,3.0,9.0,0,0.00,,,0.01,Weather View 32 v70,2013-03-12 23:50:00,
2013-03-12 16:55:00,53.0,0.0,29.83,WSW,248,4.0,9.0,0,0.00,,,0.01,Weather View 32 v70,2013-03-12 23:55:00,
2013-03-12 16:59:00,53.0,0.0,29.83,South,180,4.0,9.0,0,0.00,,,0.01,Weather View 32 v70,2013-03-12 23:59:00,
2013-03-12 17:04:00,52.0,0.0,29.83,South,180,4.0,9.0,0,0.00,,,0.01,Weather View 32 v70,2013-03-13 00:04:00,
2013-03-12 17:09:00,52.0,0.0,29.83,South,180,3.0,9.0,0,0.00,,,0.01,Weather View 32 v70,2013-03-13 00:09:00,
2013-03-12 17:14:00,52.0,0.0,29.83,SW,225,1.0,9.0,0,0.00,,,0.01,Weather View 32 v70,2013-03-13 00:14:00,
2013-03-12 17:20:00,52.0,0.0,29.83,SW,225,6.0,9.0,0,0.00,,,0.01,Weather View 32 v70,2013-03-13 00:20:00,
2013-03-12 17:25:00,52.0,0.0,29.83,SW,225,3.0,9.0,0,0.00,,,0.01,Weather View 32 v70,2013-03-13 00:25:00,
2013-03-12 17:29:00,52.0,0.0,29.83,SSW,202,4.0,9.0,0,0.00,,,0.01,Weather View 32 v70,2013-03-13 00:29:00,
2013-03-12 17:34:00,52.0,0.0,29.83,South,180,5.0,9.0,0,0.00,,,0.01,Weather View 32 v70,2013-03-13 00:34:00,
2013-03-12 17:40:00,52.0,0.0,29.83,SSW,202,4.0,9.0,0,0.00,,,0.01,Weather View 32 v70,2013-03-13 00:40:00,
2013-03-12 17:45:00,52.0,0.0,29.83,SW,225,3.0,6.0,0,0.00,,,0.01,Weather View 32 v70,2013-03-13 00:45:00,
2013-03-12 17:49:00,52.0,0.0,29.83,WSW,248,3.0,6.0,0,0.00,,,0.01,Weather View 32 v70,2013-03-13 00:49:00,
2013-03-12 17:54:00,52.0,0.0,29.84,WSW,248,3.0,6.0,0,0.00,,,0.01,Weather View 32 v70,2013-03-13 00:54:00,
2013-03-12 17:59:00,51.0,0.0,29.84,SW,225,4.0,6.0,0,0.00,,,0.01,Weather View 32 v70,2013-03-13 00:59:00,
2013-03-12 18:05:00,51.0,0.0,29.83,SSW,202,4.0,8.0,0,0.00,,,0.01,Weather View 32 v70,2013-03-13 01:05:00,
2013-03-12 18:10:00,51.0,0.0,29.83,SW,225,4.0,8.0,0,0.00,,,0.01,Weather View 32 v70,2013-03-13 01:10:00,
2013-03-12 18:14:00,51.0,0.0,29.83,SW,225,3.0,8.0,0,0.00,,,0.01,Weather View 32 v70,2013-03-13 01:14:00,
2013-03-12 18:20:00,51.0,0.0,29.83,SSW,202,5.0,8.0,0,0.00,,,0.01,Weather View 32 v70,2013-03-13 01:20:00,
2013-03-12 18:25:00,51.0,0.0,29.83,WSW,248,3.0,8.0,0,0.00,,,0.01,Weather View 32 v70,2013-03-13 01:25:00,
2013-03-12 18:30:00,51.0,0.0,29.83,SW,225,5.0,8.0,0,0.00,,,0.01,Weather View 32 v70,2013-03-13 01:30:00,
2013-03-12 18:35:00,51.0,0.0,29.83,SSW,202,5.0,8.0,0,0.00,,,0.01,Weather View 32 v70,2013-03-13 01:35:00,
2013-03-12 18:40:00,50.0,0.0,29.83,SW,225,4.0,8.0,0,0.00,,,0.01,Weather View 32 v70,2013-03-13 01:40:00,
2013-03-12 18:45:00,50.0,0.0,29.83,SW,225,4.0,8.0,0,0.00,,,0.01,Weather View 32 v70,2013-03-13 01:45:00,
2013-03-12 18:50:00,50.0,0.0,29.83,SW,225,2.0,8.0,0,0.00,,,0.01,Weather View 32 v70,2013-03-13 01:50:00,
2013-03-12 18:55:00,50.0,0.0,29.83,WSW,248,3.0,8.0,0,0.00,,,0.01,Weather View 32 v70,2013-03-13 01:55:00,
2013-03-12 19:00:00,50.0,0.0,29.83,SW,225,3.0,8.0,0,0.00,,,0.01,Weather View 32 v70,2013-03-13 02:00:00,
2013-03-12 19:05:00,50.0,0.0,29.84,SW,225,3.0,8.0,0,0.00,,,0.01,Weather View 32 v70,2013-03-13 02:05:00,
2013-03-12 19:10:00,50.0,0.0,29.84,SSW,202,3.0,8.0,0,0.00,,,0.01,Weather View 32 v70,2013-03-13 02:10:00,
2013-03-12 19:15:00,50.0,0.0,29.84,SW,225,6.0,8.0,0,0.00,,,0.01,Weather View 32 v70,2013-03-13 02:15:00,
2013-03-12 19:19:00,50.0,0.0,29.84,SW,225,3.0,8.0,0,0.00,,,0.01,Weather View 32 v70,2013-03-13 02:19:00,
2013-03-12 19:24:00,50.0,0.0,29.84,SW,225,5.0,8.0,0,0.00,,,0.01,Weather View 32 v70,2013-03-13 02:24:00,
2013-03-12 19:30:00,50.0,0.0,29.84,SW,225,4.0,8.0,0,0.00,,,0.01,Weather View 32 v70,2013-03-13 02:30:00,
2013-03-12 19:35:00,50.0,0.0,29.84,SW,225,3.0,8.0,0,0.00,,,0.01,Weather View 32 v70,2013-03-13 02:35:00,
2013-03-12 19:39:00,50.0,0.0,29.84,SSW,202,3.0,8.0,0,0.00,,,0.01,Weather View 32 v70,2013-03-13 02:39:00,
2013-03-12 19:44:00,50.0,0.0,29.85,WSW,248,4.0,8.0,0,0.00,,,0.01,Weather View 32 v70,2013-03-13 02:44:00,
2013-03-12 19:50:00,50.0,0.0,29.85,WSW,248,5.0,8.0,0,0.00,,,0.01,Weather View 32 v70,2013-03-13 02:50:00,
2013-03-12 19:55:00,50.0,0.0,29.85,South,180,3.0,8.0,0,0.00,,,0.01,Weather View 32 v70,2013-03-13 02:55:00,
2013-03-12 20:00:00,50.0,0.0,29.85,SSW,202,5.0,8.0,0,0.00,,,0.01,Weather View 32 v70,2013-03-13 03:00:00,
2013-03-12 20:04:00,50.0,0.0,29.85,SW,225,4.0,8.0,0,0.00,,,0.01,Weather View 32 v70,2013-03-13 03:04:00,
2013-03-12 20:09:00,50.0,0.0,29.85,WSW,248,4.0,8.0,0,0.00,,,0.01,Weather View 32 v70,2013-03-13 03:09:00,
2013-03-12 20:14:00,50.0,0.0,29.86,SSW,202,4.0,8.0,0,0.00,,,0.01,Weather View 32 v70,2013-03-13 03:14:00,
2013-03-12 20:20:00,50.0,0.0,29.86,South,180,3.0,8.0,0,0.00,,,0.01,Weather View 32 v70,2013-03-13 03:20:00,
2013-03-12 20:24:00,49.0,0.0,29.86,SSW,202,2.0,8.0,0,0.00,,,0.01,Weather View 32 v70,2013-03-13 03:24:00,
2013-03-12 20:30:00,49.0,0.0,29.86,SSW,202,4.0,8.0,0,0.00,,,0.01,Weather View 32 v70,2013-03-13 03:30:00,
2013-03-12 20:35:00,49.0,0.0,29.86,South,180,3.0,8.0,0,0.00,,,0.01,Weather View 32 v70,2013-03-13 03:35:00,
2013-03-12 20:40:00,49.0,0.0,29.86,South,180,3.0,8.0,0,0.00,,,0.01,Weather View 32 v70,2013-03-13 03:40:00,
2013-03-12 20:45:00,49.0,0.0,29.86,South,180,3.0,8.0,0,0.00,,,0.01,Weather View 32 v70,2013-03-13 03:45:00,
2013-03-12 20:50:00,49.0,0.0,29.86,SSW,202,5.0,8.0,0,0.00,,,0.01,Weather View 32 v70,2013-03-13 03:50:00,
2013-03-12 20:54:00,49.0,0.0,29.86,SSW,202,3.0,8.0,0,0.00,,,0.01,Weather View 32 v70,2013-03-13 03:54:00,
2013-03-12 20:59:00,49.0,0.0,29.86,SSW,202,5.0,8.0,0,0.00,,,0.01,Weather View 32 v70,2013-03-13 03:59:00,
2013-03-12 21:00:00,49.0,0.0,29.86,South,180,4.0,8.0,0,0.00,,,0.01,Weather View 32 v70,2013-03-13 04:00:00,
2013-03-12 21:05:00,49.0,0.0,29.86,SSW,202,3.0,6.0,0,0.00,,,0.01,Weather View 32 v70,2013-03-13 04:05:00,
2013-03-12 21:10:00,49.0,0.0,29.86,SSW,202,3.0,6.0,0,0.00,,,0.01,Weather View 32 v70,2013-03-13 04:10:00,
2013-03-12 21:15:00,49.0,0.0,29.86,SSW,202,3.0,6.0,0,0.00,,,0.01,Weather View 32 v70,2013-03-13 04:15:00,
2013-03-12 21:20:00,49.0,0.0,29.86,SSW,202,4.0,6.0,0,0.00,,,0.01,Weather View 32 v70,2013-03-13 04:20:00,
2013-03-12 21:25:00,49.0,0.0,29.86,SSW,202,3.0,6.0,0,0.00,,,0.01,Weather View 32 v70,2013-03-13 04:25:00,
2013-03-12 21:30:00,49.0,0.0,29.86,SSW,202,3.0,6.0,0,0.00,,,0.01,Weather View 32 v70,2013-03-13 04:30:00,
2013-03-12 21:35:00,49.0,0.0,29.86,SSW,202,4.0,6.0,0,0.00,,,0.01,Weather View 32 v70,2013-03-13 04:35:00,
2013-03-12 21:40:00,49.0,0.0,29.86,SW,225,3.0,6.0,0,0.00,,,0.01,Weather View 32 v70,2013-03-13 04:40:00,
2013-03-12 21:45:00,49.0,0.0,29.86,SW,225,4.0,6.0,0,0.00,,,0.01,Weather View 32 v70,2013-03-13 04:45:00,
2013-03-12 21:50:00,49.0,0.0,29.86,SSW,202,3.0,6.0,0,0.00,,,0.01,Weather View 32 v70,2013-03-13 04:50:00,
2013-03-12 21:55:00,49.0,0.0,29.86,WSW,248,3.0,6.0,0,0.00,,,0.01,Weather View 32 v70,2013-03-13 04:55:00,
2013-03-12 22:00:00,48.0,0.0,29.86,SW,225,0.0,6.0,0,0.00,,,0.01,Weather View 32 v70,2013-03-13 05:00:00,
2013-03-12 22:05:00,48.0,0.0,29.86,SSW,202,0.0,6.0,0,0.00,,,0.01,Weather View 32 v70,2013-03-13 05:05:00,
2013-03-12 22:10:00,48.0,0.0,29.87,South,180,1.0,6.0,0,0.00,,,0.01,Weather View 32 v70,2013-03-13 05:10:00,
2013-03-12 22:15:00,48.0,0.0,29.87,SW,225,2.0,6.0,0,0.00,,,0.01,Weather View 32 v70,2013-03-13 05:15:00,
2013-03-12 22:20:00,48.0,0.0,29.86,SSW,202,2.0,6.0,0,0.00,,,0.01,Weather View 32 v70,2013-03-13 05:20:00,
2013-03-12 22:25:00,48.0,0.0,29.86,SSW,202,2.0,6.0,0,0.00,,,0.01,Weather View 32 v70,2013-03-13 05:25:00,
2013-03-12 22:30:00,48.0,0.0,29.87,SSW,202,2.0,6.0,0,0.01,,,0.02,Weather View 32 v70,2013-03-13 05:30:00,
2013-03-12 22:35:00,48.0,0.0,29.87,SSW,202,2.0,6.0,0,0.01,,,0.02,Weather View 32 v70,2013-03-13 05:35:00,
2013-03-12 22:40:00,48.0,0.0,29.87,SSW,202,3.0,6.0,0,0.01,,,0.02,Weather View 32 v70,2013-03-13 05:40:00,
2013-03-12 22:45:00,48.0,0.0,29.86,South,180,4.0,6.0,0,0.01,,,0.02,Weather View 32 v70,2013-03-13 05:45:00,
2013-03-12 22:50:00,48.0,0.0,29.87,SW,225,2.0,6.0,0,0.01,,,0.02,Weather View 32 v70,2013-03-13 05:50:00,
2013-03-12 22:55:00,48.0,0.0,29.87,SW,225,0.0,5.0,0,0.01,,,0.02,Weather View 32 v70,2013-03-13 05:55:00,
2013-03-12 23:00:00,48.0,0.0,29.87,SW,225,2.0,5.0,0,0.01,,,0.02,Weather View 32 v70,2013-03-13 06:00:00,
2013-03-12 23:05:00,48.0,0.0,29.87,South,180,4.0,6.0,0,0.01,,,0.02,Weather View 32 v70,2013-03-13 06:05:00,
2013-03-12 23:10:00,48.0,0.0,29.87,South,180,1.0,6.0,0,0.01,,,0.02,Weather View 32 v70,2013-03-13 06:10:00,
2013-03-12 23:15:00,48.0,0.0,29.87,SW,225,3.0,6.0,0,0.01,,,0.02,Weather View 32 v70,2013-03-13 06:15:00,
2013-03-12 23:20:00,48.0,0.0,29.86,WSW,248,2.0,6.0,0,0.01,,,0.02,Weather View 32 v70,2013-03-13 06:20:00,
2013-03-12 23:25:00,48.0,0.0,29.86,SW,225,4.0,6.0,0,0.01,,,0.02,Weather View 32 v70,2013-03-13 06:25:00,
2013-03-12 23:30:00,48.0,0.0,29.86,SW,225,4.0,6.0,0,0.00,,,0.02,Weather View 32 v70,2013-03-13 06:30:00,
2013-03-12 23:35:00,48.0,0.0,29.86,South,180,4.0,6.0,0,0.00,,,0.02,Weather View 32 v70,2013-03-13 06:35:00,
2013-03-12 23:40:00,48.0,0.0,29.85,SSW,202,5.0,6.0,0,0.00,,,0.02,Weather View 32 v70,2013-03-13 06:40:00,
2013-03-12 23:45:00,48.0,0.0,29.85,SW,225,5.0,6.0,0,0.00,,,0.02,Weather View 32 v70,2013-03-13 06:45:00,
2013-03-12 23:50:00,48.0,0.0,29.86,SSW,202,4.0,6.0,0,0.00,,,0.02,Weather View 32 v70,2013-03-13 06:50:00,
2013-03-12 23:55:00,48.0,0.0,29.86,SW,225,3.0,6.0,0,0.00,,,0.02,Weather View 32 v70,2013-03-13 06:55:00,